2020-079G (46833 NORAD) Tracking and Keplerian Element Data

This shows tracking and keplerian element data for the satellite.

Feedback or suggestion? Click here.




ElementValue
Catalog46833
Name2020-079G
Epoch Orbit305
Epoch Day331.12376898
Epoch Year2020
RAAN42.9448
Inclination97.2666
Eccentricity0.0008765
Argument of Perigee178.7082
Mean Anonmoly240.7274
Mean Motion15.31359461
Decay Rate3.598E-05
L11 46833U 20079G 20331.12376898 .00003598 00000-0 12121-3 0 9990
L22 46833 97.2666 42.9448 0008765 178.7082 240.7274 15.31359461 3054

Live tracking and technical data element details for 2020-079G (NORAD 46833). 2020-079G can be tracked NOW for your location showing map with azimuth and elevation plus other details from your city location.

Track the satellite on the map from your city or location and see movement details for azimuth, elevation, latitude, longitude, range, height, and movement on the map or in text.







IsCatalogInMostPopularTable: catalog: 46833, numindb: 6
Update: records affected: 1



GetName: 46833 2020-079G

Hit Count: updated at: Thu, 26 Nov 2020 18:24:12 GMT